Regional Weather Roundup
Issued by NWS Mt. Holly, NJ

Home | Current Version | Previous Version | Text Only | Print | Product List | Glossary On
Versions: 1 2 3 4 5 6 7 8 9 10 11 12 13 14 15 16 17 18 19 20 21 22 23 24 25 26 27 28 29 30 31 32 33 34 35 36 37 38 39 40 41 42 43 44 45 46 47 48 49 50
000
ASUS41 KPHI 262012
RWRPHI

REGIONAL WEATHER ROUNDUP
NATIONAL WEATHER SERVICE MOUNT HOLLY NJ
400 PM EDT SUN MAR 26 2017

NOTE:  "FAIR" INDICATES FEW OR NO CLOUDS BELOW 12,000 FEET WITH NO
SIGNIFICANT WEATHER AND/OR OBSTRUCTIONS TO VISIBILITY.

 * = STATION DOES NOT REPORT PRECIPITATION (E.G. RAIN, SNOW, ETC.)
        OR FOG.

NJZ015>026-262100-
SOUTHERN NEW JERSEY

CITY           SKY/WX    TMP DP  RH WIND       PRES   REMARKS
POMONA         CLOUDY    43  40  89 E14       30.35F FOG
WILDWOOD*      CLOUDY    44  42  93 E16G22    30.34S FOG
MILLVILLE      CLOUDY    46  43  89 E14       30.33F
WRIGHTSTOWN    CLOUDY    42  38  85 E13       30.34F
MOUNT HOLLY    CLOUDY    43  38  82 E9        30.37F
TRENTON        CLOUDY    41  37  86 E15       30.37S

$$
NJZ001>014-262100-
NORTHERN NEW JERSEY

CITY           SKY/WX    TMP DP  RH WIND       PRES   REMARKS
SUSSEX         CLOUDY    39  34  82 NE5       30.38F
ANDOVER*         N/A     39  33  79 CALM      30.37F
MORRISTOWN     CLOUDY    41  34  75 E8        30.41F
NEWARK         CLOUDY    44  34  67 NE7       30.40F
TETERBORO      CLOUDY    42  33  70 NE14G22   30.41F
CALDWELL       CLOUDY    41  32  70 E10       30.41F
SOMERVILLE     CLOUDY    43  35  73 SE7       30.37F
ALLAIRE*       CLOUDY    41  38  89 E15G22    30.39F FOG
TOMS RIVER*    CLOUDY    41  40  96 E9        30.38F FOG

$$
PAZ043-044-047-054-055-060>062-066>071-262100-
EASTERN PENNSYLVANIA

CITY           SKY/WX    TMP DP  RH WIND       PRES   REMARKS
PHILADELPHIA   CLOUDY    45  39  79 E14       30.36F
NORTH PHILA    CLOUDY    45  39  79 E14       30.38F
BLUE BELL*     CLOUDY    41  37  87 E10       30.34F
DOYLESTOWN     CLOUDY    41  38  89 VRB3      30.35F
QUAKERTOWN*    CLOUDY    39  37  93 SE8       30.36F WCI  34
PERKASIE*      CLOUDY    39  37  93 E7        30.35F WCI  34
POTTSTOWN      CLOUDY    41  37  86 E10       30.35F
LANCASTER      CLOUDY    45  41  86 SE13      30.31F
COATESVILLE    CLOUDY    41  39  93 E16G23    30.31F FOG
READING        CLOUDY    43  38  82 E10       30.32F
ALLENTOWN      CLOUDY    43  35  73 E14       30.35F
MOUNT POCONO   CLOUDY    32  32 100 SE13      30.29F FOG     WCI  22
HAZLETON       CLOUDY    36  34  93 E5G17     30.30F FOG     WCI  32
LEHIGHTON      CLOUDY    41  34  75 E9        30.35F
WILKES BARRE   CLOUDY    40  35  83 CALM      30.31F

$$
DEZALL-MDZ008-012-015-019-020-262100-
DELAWARE AND EASTERN MARYLAND

CITY           SKY/WX    TMP DP  RH WIND       PRES   REMARKS
WILMINGTON     CLOUDY    46  42  86 E12       30.34F
DOVER          CLOUDY    47  47 100 E12       30.31F
GEORGETOWN     CLOUDY    46  44  93 E15       30.31F FOG
EASTON         CLOUDY    48  45  87 E10G17    30.33F
ABERDEEN       CLOUDY    47  42  84 E10       30.31F
PATUXENT       CLOUDY    53  50  89 NE9       30.26F
OCEAN CITY     FOG       46  44  93 NE10      30.30F VSB 1
WALLOPS ISLAND CLOUDY    50  50 100 NE20      30.27F FOG
CAMBRIDGE      CLOUDY    50  45  81 E8        30.29S
SALISBURY      CLOUDY    49  47  93 E10       30.29F

$$
PAZ001-021-NYZ056-072-MDZ011-DCZ001-262100-
OTHER NEARBY LOCATIONS

CITY           SKY/WX    TMP DP  RH WIND       PRES   REMARKS
HARRISBURG     CLOUDY    45  40  82 E14       30.29F
STATE COLLEGE  CLOUDY    41  39  93 E10       30.21F FOG
WILLIAMSPORT   CLOUDY    45  37  73 E10G23    30.26F
BINGHAMTON     CLOUDY    35  32  88 SE15G24   30.23F WCI  25
NEW YORK CITY  CLOUDY    41  33  73 E8        30.42F
BALTIMORE      CLOUDY    47  45  93 E14       30.28F
WASHINGTON DC  CLOUDY    50  46  86 E13       30.26F

$$



USA.gov is the U.S. government's official web portal to all federal, state and local government web resources and services.